| time (UTC) | temp C | wind direction | speed KPH | gust KPH | rain 1hr cm | rain 24hr cm | rain mn cm | humidity % | barometer mb |
| 20260510194558 | 28 | 241 | 0.0 | 6.4 | 0.00 | 0.00 | 0.00 | 26 | 1015.6 |
| 20260510193050 | 27 | 187 | 0.0 | 4.8 | 0.00 | 0.00 | 0.00 | 27 | 1015.5 |
| 20260510191547 | 28 | 294 | 0.0 | 4.8 | 0.00 | 0.00 | 0.00 | 27 | 1015.7 |
| 20260510190052 | 28 | 232 | 1.6 | 8.0 | 0.00 | 0.00 | 0.00 | 25 | 1015.8 |
| 20260510184546 | 27 | 0 | 1.6 | 8.0 | 0.00 | 0.00 | 0.00 | 27 | 1015.9 |
| 20260510183057 | 27 | 228 | 1.6 | 8.0 | 0.00 | 0.00 | 0.00 | 28 | 1016.0 |
| 20260510181618 | 27 | 332 | 1.6 | 8.0 | 0.00 | 0.00 | 0.00 | 28 | 1016.1 |
| 20260510180057 | 27 | 248 | 1.6 | 9.7 | 0.00 | 0.00 | 0.00 | 29 | 1016.2 |
| 20260510174559 | 27 | 217 | 0.0 | 3.2 | 0.00 | 0.00 | 0.00 | 30 | 1016.2 |
| 20260510173051 | 26 | 129 | 3.2 | 6.4 | 0.00 | 0.00 | 0.00 | 30 | 1016.3 |
| 20260510171547 | 27 | 178 | 1.6 | 6.4 | 0.00 | 0.00 | 0.00 | 30 | 1016.4 |
| 20260510170048 | 27 | 0 | 0.0 | 6.4 | 0.00 | 0.00 | 0.00 | 32 | 1016.4 |
| 20260510164550 | 25 | 139 | 1.6 | 6.4 | 0.00 | 0.00 | 0.00 | 28 | 1016.6 |
| 20260510163048 | 27 | 0 | 0.0 | 3.2 | 0.00 | 0.00 | 0.00 | 31 | 1016.7 |
| 20260510161550 | 26 | 122 | 0.0 | 3.2 | 0.00 | 0.00 | 0.00 | 30 | 1016.9 |
| 20260510160050 | 25 | 0 | 0.0 | 6.4 | 0.00 | 0.00 | 0.00 | 32 | 1017.0 |
| 20260510154552 | 25 | 0 | 0.0 | 3.2 | 0.00 | 0.00 | 0.00 | 36 | 1017.0 |
| 20260510153105 | 25 | 0 | 0.0 | 11.3 | 0.00 | 0.00 | 0.00 | 37 | 1017.0 |
| 20260510151556 | 25 | 0 | 0.0 | 1.6 | 0.00 | 0.00 | 0.00 | 40 | 1017.1 |
| 20260510150044 | 24 | 180 | 0.0 | 4.8 | 0.00 | 0.00 | 0.00 | 40 | 1017.1 |
| 20260510144550 | 24 | 0 | 0.0 | 3.2 | 0.00 | 0.00 | 0.00 | 43 | 1017.2 |
| 20260510143104 | 23 | 285 | 0.0 | 3.2 | 0.00 | 0.00 | 0.00 | 49 | 1017.1 |
| 20260510141553 | 22 | 0 | 0.0 | 3.2 | 0.00 | 0.00 | 0.00 | 51 | 1017.0 |
| 20260510140048 | 22 | 0 | 0.0 | 0.0 | 0.00 | 0.00 | 0.00 | 58 | 1017.1 |
| 20260510134555 | 21 | 0 | 0.0 | 3.2 | 0.00 | 0.00 | 0.00 | 62 | 1017.0 |
| 20260510133052 | 20 | 0 | 0.0 | 3.2 | 0.00 | 0.00 | 0.00 | 65 | 1016.9 |
| 20260510131554 | 19 | 0 | 0.0 | 1.6 | 0.00 | 0.00 | 0.00 | 73 | 1017.0 |
| 20260510130050 | 17 | 0 | 0.0 | 1.6 | 0.00 | 0.00 | 0.00 | 82 | 1017.0 |
| 20260510124554 | 16 | 0 | 0.0 | 1.6 | 0.00 | 0.00 | 0.00 | 87 | 1016.9 |
| 20260510123049 | 16 | 0 | 0.0 | 1.6 | 0.00 | 0.00 | 0.00 | 92 | 1016.6 |
| 20260510121546 | 15 | 0 | 0.0 | 1.6 | 0.00 | 0.00 | 0.00 | 94 | 1016.4 |
| 20260510120046 | 15 | 0 | 0.0 | 0.0 | 0.00 | 0.00 | 0.00 | 94 | 1016.0 |
| 20260510114557 | 13 | 0 | 0.0 | 0.0 | 0.00 | 0.00 | 0.00 | 94 | 1015.8 |
| 20260510113052 | 13 | 0 | 0.0 | 0.0 | 0.00 | 0.00 | 0.00 | 94 | 1015.6 |
| 20260510111551 | 12 | 0 | 0.0 | 0.0 | 0.00 | 0.00 | 0.00 | 93 | 1015.5 |
| 20260510110053 | 12 | 0 | 0.0 | 0.0 | 0.00 | 0.00 | 0.00 | 93 | 1015.3 |
| 20260510104545 | 12 | 0 | 0.0 | 0.0 | 0.00 | 0.00 | 0.00 | 93 | 1015.0 |
| 20260510103051 | 12 | 0 | 0.0 | 0.0 | 0.00 | 0.00 | 0.00 | 92 | 1014.8 |
| 20260510101552 | 13 | 0 | 0.0 | 0.0 | 0.00 | 0.00 | 0.00 | 92 | 1014.4 |
| 20260510100112 | 13 | 0 | 0.0 | 0.0 | 0.00 | 0.00 | 0.00 | 92 | 1014.2 |
| 20260510094555 | 13 | 0 | 0.0 | 0.0 | 0.00 | 0.00 | 0.00 | 92 | 1014.0 |
| 20260510093053 | 13 | 0 | 0.0 | 0.0 | 0.00 | 0.00 | 0.00 | 92 | 1014.0 |
| 20260510091548 | 13 | 0 | 0.0 | 0.0 | 0.00 | 0.00 | 0.00 | 92 | 1014.0 |
| 20260510090051 | 13 | 0 | 0.0 | 0.0 | 0.00 | 0.00 | 0.00 | 92 | 1013.9 |
| 20260510084546 | 13 | 0 | 0.0 | 0.0 | 0.00 | 0.00 | 0.00 | 92 | 1013.6 |
| 20260510083057 | 14 | 0 | 0.0 | 0.0 | 0.00 | 0.00 | 0.00 | 92 | 1013.6 |
| 20260510081550 | 14 | 0 | 0.0 | 0.0 | 0.00 | 0.00 | 0.00 | 92 | 1013.4 |
| 20260510080045 | 14 | 0 | 0.0 | 0.0 | 0.00 | 0.00 | 0.00 | 91 | 1013.2 |
| 20260510074553 | 14 | 0 | 0.0 | 0.0 | 0.00 | 0.00 | 0.00 | 91 | 1013.2 |
| 20260510073044 | 15 | 0 | 0.0 | 0.0 | 0.00 | 0.00 | 0.00 | 91 | 1013.1 |
| 20260510071556 | 15 | 0 | 0.0 | 0.0 | 0.00 | 0.00 | 0.00 | 91 | 1013.0 |
| 20260510070050 | 15 | 0 | 0.0 | 0.0 | 0.00 | 0.00 | 0.00 | 90 | 1012.8 |
| 20260510064551 | 15 | 0 | 0.0 | 0.0 | 0.00 | 0.00 | 0.00 | 90 | 1012.9 |
| 20260510063045 | 15 | 0 | 0.0 | 0.0 | 0.00 | 0.00 | 0.00 | 90 | 1012.9 |
| 20260510061554 | 15 | 0 | 0.0 | 0.0 | 0.00 | 0.00 | 0.00 | 89 | 1013.1 |
| 20260510060050 | 15 | 0 | 0.0 | 1.6 | 0.00 | 0.00 | 0.00 | 89 | 1013.1 |
| 20260510054550 | 16 | 0 | 0.0 | 0.0 | 0.00 | 0.00 | 0.00 | 88 | 1013.0 |
| 20260510053049 | 16 | 0 | 0.0 | 0.0 | 0.00 | 0.00 | 0.00 | 88 | 1013.2 |
| 20260510051551 | 16 | 0 | 0.0 | 0.0 | 0.00 | 0.00 | 0.00 | 87 | 1013.2 |
| 20260510050053 | 16 | 0 | 0.0 | 1.6 | 0.00 | 0.00 | 0.00 | 86 | 1013.3 |
| 20260510044550 | 16 | 0 | 0.0 | 1.6 | 0.00 | 0.00 | 0.00 | 86 | 1013.4 |
| 20260510043054 | 16 | 0 | 0.0 | 1.6 | 0.00 | 0.00 | 0.00 | 85 | 1013.3 |
| 20260510041550 | 16 | 0 | 0.0 | 1.6 | 0.00 | 0.00 | 0.00 | 84 | 1013.3 |
| 20260510040048 | 17 | 0 | 0.0 | 1.6 | 0.00 | 0.00 | 0.00 | 84 | 1013.3 |
| 20260510034543 | 17 | 0 | 0.0 | 1.6 | 0.00 | 0.00 | 0.00 | 83 | 1013.3 |
| 20260510033111 | 17 | 0 | 0.0 | 0.0 | 0.00 | 0.00 | 0.00 | 82 | 1013.5 |
| 20260510031551 | 17 | 0 | 0.0 | 1.6 | 0.00 | 0.00 | 0.00 | 83 | 1013.4 |
| 20260510030044 | 17 | 0 | 0.0 | 1.6 | 0.00 | 0.00 | 0.00 | 80 | 1013.3 |
| 20260510024546 | 18 | 0 | 0.0 | 1.6 | 0.00 | 0.00 | 0.00 | 80 | 1013.2 |
| 20260510023046 | 18 | 0 | 0.0 | 1.6 | 0.00 | 0.00 | 0.00 | 78 | 1013.2 |
| 20260510021545 | 18 | 224 | 0.0 | 3.2 | 0.00 | 0.00 | 0.00 | 77 | 1013.0 |
| 20260510020050 | 18 | 0 | 0.0 | 4.8 | 0.00 | 0.00 | 0.00 | 76 | 1013.0 |
| 20260510014544 | 18 | 203 | 0.0 | 3.2 | 0.00 | 0.00 | 0.00 | 75 | 1012.9 |
| 20260510013042 | 19 | 0 | 1.6 | 9.7 | 0.00 | 0.00 | 0.00 | 74 | 1012.5 |
| 20260510011552 | 19 | 188 | 0.0 | 6.4 | 0.00 | 0.00 | 0.00 | 73 | 1012.2 |
| 20260510010043 | 20 | 228 | 0.0 | 6.4 | 0.00 | 0.00 | 0.00 | 71 | 1011.9 |
| 20260510004550 | 20 | 0 | 0.0 | 6.4 | 0.00 | 0.00 | 0.00 | 70 | 1011.7 |
| 20260510003108 | 20 | 179 | 0.0 | 8.0 | 0.00 | 0.00 | 0.00 | 69 | 1011.5 |
| 20260510001543 | 20 | 222 | 0.0 | 4.8 | 0.00 | 0.00 | 0.00 | 68 | 1011.4 |
| 20260510000046 | 21 | 0 | 1.6 | 9.7 | 0.00 | 0.00 | 0.00 | 67 | 1011.3 |
| 20260509234557 | 21 | 150 | 0.0 | 9.7 | 0.00 | 0.00 | 0.00 | 66 | 1011.3 |
| 20260509233046 | 21 | 0 | 0.0 | 11.3 | 0.00 | 0.00 | 0.00 | 66 | 1011.1 |
| 20260509231553 | 21 | 0 | 1.6 | 9.7 | 0.00 | 0.00 | 0.00 | 65 | 1010.9 |
| 20260509230057 | 21 | 0 | 3.2 | 12.9 | 0.00 | 0.00 | 0.00 | 64 | 1010.9 |
| 20260509224548 | 22 | 225 | 1.6 | 11.3 | 0.00 | 0.00 | 0.00 | 64 | 1010.7 |
| 20260509223049 | 22 | 0 | 1.6 | 8.0 | 0.00 | 0.00 | 0.00 | 63 | 1010.5 |
| 20260509221548 | 22 | 0 | 0.0 | 12.9 | 0.00 | 0.00 | 0.00 | 61 | 1010.4 |
| 20260509220050 | 22 | 78 | 1.6 | 14.5 | 0.00 | 0.00 | 0.00 | 60 | 1010.5 |
| 20260509214540 | 22 | 240 | 1.6 | 19.3 | 0.00 | 0.00 | 0.00 | 60 | 1010.5 |
| 20260509213055 | 22 | 190 | 4.8 | 19.3 | 0.00 | 0.00 | 0.00 | 59 | 1010.4 |
| 20260509211543 | 22 | 186 | 4.8 | 16.1 | 0.00 | 0.00 | 0.00 | 58 | 1010.7 |
| 20260509210051 | 23 | 217 | 0.0 | 20.9 | 0.00 | 0.00 | 0.00 | 59 | 1010.3 |
| 20260509204542 | 23 | 240 | 1.6 | 12.9 | 0.00 | 0.00 | 0.00 | 58 | 1010.1 |
| 20260509203046 | 22 | 115 | 0.0 | 11.3 | 0.00 | 0.00 | 0.00 | 60 | 1010.6 |
| 20260509201547 | 22 | 187 | 1.6 | 16.1 | 0.00 | 0.00 | 0.00 | 60 | 1010.6 |
| 20260509200053 | 22 | 183 | 1.6 | 14.5 | 0.00 | 0.00 | 0.00 | 61 | 1010.7 |